This is the latest recevied weather packets stored in our database for station/object KM4NDN. If no packets are shown the sender has not sent any weather packets the latest 10 day(s).
| Time | Temp. | Humidity | Pressure | Rain* | Wind** | Luminosity | Snow |
|---|---|---|---|---|---|---|---|
| 1777468301 | 11.67° C | 92% | 1009.5 hPa | 0 mm | - | 57 W/m² | - |
| 1777467996 | 11.67° C | 93% | 1009.3 hPa | 0 mm | - | 76 W/m² | - |
| 1777467692 | 11.67° C | 93% | 1009.1 hPa | 0 mm | - | 94 W/m² | - |
| 1777467387 | 11.67° C | 93% | 1009 hPa | 0 mm | - | 103 W/m² | - |
| 1777467084 | 11.67° C | 93% | 1008.8 hPa | 0 mm | - | 94 W/m² | - |
| 1777466781 | 11.67° C | 93% | 1008.9 hPa | 0 mm | - | 110 W/m² | - |
| 1777466479 | 11.67° C | 94% | 1008.9 hPa | 0 mm | - | 103 W/m² | - |
| 1777466175 | 11.67° C | 94% | 1009.1 hPa | 0 mm | - | 134 W/m² | - |
| 1777465871 | 11.67° C | 94% | 1009 hPa | 0 mm | - | 100 W/m² | - |
| 1777465568 | 11.67° C | 94% | 1009.2 hPa | 0 mm | - | 80 W/m² | - |
| 1777465262 | 11.11° C | 94% | 1009.1 hPa | 0 mm | - | 76 W/m² | - |
| 1777464957 | 11.11° C | 94% | 1008.9 hPa | 0 mm | - | 44 W/m² | - |
| 1777464653 | 11.11° C | 95% | 1008.8 hPa | 0 mm | - | 45 W/m² | - |
| 1777464349 | 11.11° C | 95% | 1008.5 hPa | 0 mm | - | 37 W/m² | - |
| 1777464044 | 11.11° C | 95% | 1008.7 hPa | 0 mm | - | 72 W/m² | - |
| 1777463739 | 11.11° C | 95% | 1009 hPa | 0 mm | - | 62 W/m² | - |
| 1777463434 | 11.11° C | 95% | 1009.1 hPa | 0 mm | - | 72 W/m² | - |
| 1777463130 | 10.56° C | 95% | 1009 hPa | 1.27 mm | - | 53 W/m² | - |
| 1777462827 | 10.56° C | 95% | 1009.2 hPa | 3.05 mm | - | 25 W/m² | - |
| 1777462521 | 10.56° C | 95% | 1009.4 hPa | 3.05 mm | - | 11 W/m² | - |
| 1777462218 | 10.56° C | 94% | 1009.6 hPa | 1.27 mm | - | 5 W/m² | - |
| 1777461915 | 10.56° C | 94% | 1009.7 hPa | 1.78 mm | - | 11 W/m² | - |
| 1777461612 | 10.56° C | 94% | 1009.8 hPa | 3.05 mm | - | 5 W/m² | - |
| 1777461307 | 10.56° C | 94% | 1009.9 hPa | 3.05 mm | - | 3 W/m² | - |
| 1777461003 | 10.56° C | 94% | 1009.8 hPa | 3.56 mm | - | 4 W/m² | - |
* Rain latest hour (hover to see other rain measurements)
** Current wind speed in m/s (hover to see current wind gust speed)